User: anonymous   Login
Location: Kaarina
(60.4167°N, 22.4167°E)
Time: 20:23:26
(UTC+03:00)
Language:

NOSS 2-2 (D) - Orbit

View from above orbital plane
View from above orbital plane
View from above satellite
View from above satellite

Ground track
Ground track

The orbit data is extracted from the following two-line orbital elements,

1 21808U 91076D   19263.75638785 0.00000200  00000-0  44305-4 0    07
2 21808  63.3418 124.9167 0818070  34.7285 325.2714 13.41281006    09
Epoch (UTC): 20 September 2019 18:09:11
Eccentricity: 0.0818070
inclination: 63.3418°
perigee height: 492 km
apogee height: 1716 km
right ascension of ascending node: 124.9167°
argument of perigee: 34.7285°
revolutions per day: 13.41281006
mean anomaly at epoch: 325.2714°
orbit number at epoch: 0

The dashed part of the orbit path shows where the satellite is in the earth's shadow,  

DLR